Regional Weather Roundup
Issued by NWS

Home | Current Version | Previous Version | Graphics & Text | Print | Product List | Glossary On
Versions: 1 2 3 4 5 6 7 8 9 10 11 12 13 14 15 16 17 18 19 20 21 22 23 24 25 26 27 28 29 30 31 32 33 34 35 36 37 38 39 40 41 42 43 44 45 46 47 48 49 50
000
ASUS45 KABQ 231301
RWRNM
WEATHER ROUNDUP FOR NEW MEXICO
NATIONAL WEATHER SERVICE ALBUQUERQUE NM
700 AM MDT SAT AUG 23 2014

NOTE: "FAIR" MEANS FEW OR NO CLOUDS BELOW 12,000 FEET AGL WITH NO
       SIGNIFICANT WEATHER OR OBSTRUCTIONS TO VISION.

      THIS PRODUCT IS RELEASED AS TWO VERSIONS.  ONE VERSION NEAR
      THE TOP OF THE HOUR CONTAINING PRELIMINARY DATA FROM ALBUQUERQUE
      AND OTHER STATIONS.  A FINAL VERSION WITH ADDITIONAL DATA IS
      ISSUED ABOUT 10 MINUTES AFTER THE HOUR.

NMZ501-503-504-510>518-231400-
NORTHWEST PLATEAU/NORTHCENTRAL MOUNTAINS

CITY           SKY/WX    TMP DP  RH WIND       PRES   REMARKS
FARMINGTON     CLOUDY    54  51  90 E7        30.13S
LOS ALAMOS     MOCLDY    52  50  95 CALM      30.25R
SANTA FE       CLEAR     50  49  96 CALM      30.21R
TAOS           PTCLDY    46  43  87 CALM      30.25R
ANGEL FIRE     CLOUDY    51  45  79 SE3       30.29R

$$
NMZ402-403-502-505>509-231400-
WESTCENTRAL MOUNTAINS/SOUTHWEST MOUNTAINS

CITY           SKY/WX    TMP DP  RH WIND       PRES   REMARKS
GALLUP         CLEAR     48  44  86 SW5       30.22R
SILVER CITY    CLEAR     55  52  88 N6        30.20R

$$
NMZ407-409-411-412-231400-
SOUTHERN DESERTS

CITY           SKY/WX    TMP DP  RH WIND       PRES   REMARKS
LORDSBURG      FAIR      63  55  77 CALM      30.12R
DEMING         CLEAR     61  59  93 NW3       30.12R
LAS CRUCES     CLEAR     61  59  94 CALM      30.14R
HOLLOMAN AFB   PTCLDY    63  61  94 E1        30.10R
ALAMOGORDO     PTCLDY    59  59 100 E7        30.12R
T OR C         CLEAR     61  56  83 W6        30.14R

$$
NMZ519>523-231400-
CENTRAL VALLEYS/CENTRAL HIGHLANDS

CITY           SKY/WX    TMP DP  RH WIND       PRES   REMARKS
ALBUQUERQUE    PTCLDY    59  55  87 NE5       30.18R
DOUBLE EAGLE   PTCLDY    52  52 100 CALM      30.20R
CLINES CORNERS CLEAR     50  48  93 NW8       30.23R
BELEN          FOG       55  55 100 CALM      30.18R VSB 1/4
SOCORRO        FAIR      57  57  98 CALM      30.16R

$$
NMZ524>526-539-540-231400-
SOUTHCENTRAL MOUNTAINS

CITY           SKY/WX    TMP DP  RH WIND       PRES   REMARKS
RUIDOSO        NOT AVBL

$$
NMZ527>531-231400-
NORTHEAST HIGHLANDS/NORTHEAST PLAINS

CITY           SKY/WX    TMP DP  RH WIND       PRES   REMARKS
LAS VEGAS      CLEAR     49  43  80 S10       30.19R
RATON          CLEAR     50  47  89 CALM      30.12R
CLAYTON        CLEAR     63  52  67 SW12      30.03S

$$
NMZ532>537-231400-
EASTCENTRAL PLAINS

CITY           SKY/WX    TMP DP  RH WIND       PRES   REMARKS
TUCUMCARI      PTCLDY    66  57  72 SW8       30.03S
CANNON AFB     NOT AVBL
CLOVIS AIRPORT   N/A     63  59  88 S7        30.10S

$$
NMZ028-029-538-231400-
SOUTHEAST PLAINS

CITY           SKY/WX    TMP DP  RH WIND       PRES   REMARKS
ROSWELL        CLEAR     65  60  84 NW8       30.04S
CARLSBAD       MOCLDY    70  64  81 E3        30.03R
HOBBS          CLEAR     70  64  83 SW5       30.06F


$$



USA.gov is the U.S. government's official web portal to all federal, state and local government web resources and services.